Wiscasset, ME

7:49 AM EDT on August 28, 2016 (GMT -0400)
Wiscasset

Weather History for KIWI - December, 2012

Change the Weather History Date:

Sunday, December 9, 2012

  Actual Average Record
Temperature  
Mean Temperature 36 °F -  
Max Temperature 45 °F 37 °F 50 °F (2008)
Min Temperature 28 °F 20 °F 1 °F (2000)
Degree Days  
Heating Degree Days 28    
Moisture  
Dew Point 31 °F    
Average Humidity 81    
Maximum Humidity 100    
Minimum Humidity 46    
Precipitation  
Precipitation 0.00 in - - ()
Sea Level Pressure  
Sea Level Pressure 30.15 in    
Wind  
Wind Speed 2 mph (WNW)    
Max Wind Speed 8 mph    
Max Gust Speed -    
Visibility 6 miles    
Events Fog    
Averages and records for this station are not official NWS values.
T = Trace of Precipitation, MM = Missing Value Source: NWS Daily Summary

Daily Weather History Graph

Daily Weather History Graph

Search for Another Location

Airport or City:

Trip Planner

Search our weather history database for the weather conditions in past years. The results will help you decide how hot, cold, wet, or windy it might be!

Date:

Astronomy

Dec. 09, 2012 Rise Set
Actual Time 7:01 AM EST 4:00 PM EST
Civil Twilight 6:29 AM EST 4:33 PM EST
Nautical Twilight 5:52 AM EST 5:09 PM EST
Astronomical Twilight 5:17 AM EST 5:44 PM EST
Moon 2:24 AM EST (12/9) 1:11 PM EST (12/9)
Length of Visible Light 10h 04m
Length of Day
8h 58m
Waning Crescent, 19% of the Moon is Illuminated
Dec 9
Waning Crescent
Dec 13
New
Dec 20
First Quarter
Dec 28
Full
Jan 4
Last Quarter

Hourly Weather History & Observations

Time (EST) Temp. Windchill Dew Point Humidity Pressure Visibility Wind Dir Wind Speed Gust Speed Precip Events Conditions
12:53 AM 37.0 °F 34.5 °F 35.1 °F 93% 29.91 in 1.0 mi SW 3.5 mph - N/A   Overcast
1:53 AM 37.9 °F 34.4 °F 36.0 °F 93% 29.96 in 1.0 mi Variable 4.6 mph - N/A   Overcast
2:30 AM 37.4 °F - 35.6 °F 93% 29.97 in 0.8 mi Calm Calm - N/A   Mist
2:51 AM 37.4 °F 34.9 °F 35.6 °F 93% 29.98 in 1.0 mi West 3.5 mph - N/A   Mist
2:53 AM 37.0 °F 34.5 °F 36.0 °F 96% 29.99 in 1.0 mi Variable 3.5 mph - N/A   Overcast
3:32 AM 37.4 °F 34.9 °F 35.6 °F 93% 30.00 in 0.8 mi Variable 3.5 mph - N/A   Mist
3:53 AM 37.0 °F - 36.0 °F 96% 30.00 in 0.8 mi Calm Calm - N/A   Mist
4:13 AM 37.4 °F 34.9 °F 35.6 °F 93% 30.01 in 1.2 mi Variable 3.5 mph - N/A   Overcast
4:26 AM 37.4 °F 33.8 °F 35.6 °F 93% 30.02 in 2.0 mi West 4.6 mph - N/A   Overcast
4:53 AM 37.0 °F - 35.1 °F 93% 30.04 in 1.5 mi Calm Calm - N/A   Overcast
5:10 AM 35.6 °F 32.8 °F 35.6 °F 100% 30.05 in 1.2 mi Variable 3.5 mph - N/A   Overcast
5:53 AM 34.0 °F - 32.0 °F 92% 30.09 in 0.5 mi Calm Calm - N/A Fog Fog
6:30 AM 33.8 °F - 32.0 °F 93% 30.11 in 1.5 mi Calm Calm - N/A   Mostly Cloudy
6:33 AM 33.8 °F - 30.2 °F 87% 30.11 in 3.0 mi Calm Calm - N/A   Mostly Cloudy
6:44 AM 32.0 °F - 30.2 °F 93% 30.12 in 6.0 mi Calm Calm - N/A   Scattered Clouds
6:53 AM 33.1 °F - 30.9 °F 92% 30.12 in 9.0 mi Calm Calm - N/A   Clear
7:53 AM 39.0 °F 36.8 °F 32.0 °F 76% 30.18 in 10.0 mi Variable 3.5 mph - N/A   Clear
8:53 AM 42.1 °F 39.2 °F 33.1 °F 70% 30.21 in 10.0 mi Variable 4.6 mph - N/A   Clear
9:53 AM 43.0 °F 39.5 °F 28.9 °F 58% 30.24 in 10.0 mi Variable 5.8 mph - N/A   Clear
10:53 AM 44.1 °F 39.5 °F 28.9 °F 55% 30.23 in 10.0 mi NW 8.1 mph - N/A   Clear
11:53 AM 44.1 °F 41.5 °F 27.0 °F 51% 30.22 in 10.0 mi Variable 4.6 mph - N/A   Clear
12:53 PM 45.0 °F 41.8 °F 25.0 °F 46% 30.23 in 10.0 mi Variable 5.8 mph - N/A   Clear
1:53 PM 45.0 °F - 25.0 °F 46% 30.24 in 10.0 mi Calm Calm - N/A   Clear
2:53 PM 43.0 °F - 26.1 °F 51% 30.26 in 10.0 mi Calm Calm - N/A   Clear
3:53 PM 37.0 °F - 28.9 °F 73% 30.28 in 10.0 mi Calm Calm - N/A   Clear
4:53 PM 32.0 °F - 28.0 °F 85% 30.30 in 10.0 mi Calm Calm - N/A   Clear
5:53 PM 30.0 °F - 27.0 °F 88% 30.34 in 10.0 mi Calm Calm - N/A   Partly Cloudy
6:53 PM 30.9 °F - 27.0 °F 85% 30.33 in 10.0 mi Calm Calm - N/A   Clear
7:53 PM 30.9 °F - 27.0 °F 85% 30.33 in 10.0 mi Calm Calm - N/A   Clear
8:53 PM 28.9 °F - 25.0 °F 85% 30.32 in 10.0 mi Calm Calm - N/A   Partly Cloudy
9:53 PM 30.9 °F - 27.0 °F 85% 30.30 in 10.0 mi Calm Calm - N/A   Clear
10:53 PM 34.0 °F 29.8 °F 25.0 °F 70% 30.27 in 10.0 mi ENE 4.6 mph - N/A   Overcast
11:53 PM 34.0 °F - 25.0 °F 70% 30.26 in 10.0 mi Calm Calm - N/A   Overcast